Location: Beaver Meadows
(40.3729°N, 105.6140°W)
Time: 11:45:08
(UTC-06:00)

Iridium 67 - Visible Passes

Search period start: 28 July 2015 00:00
Search period end: 07 August 2015 00:00
Orbit: 776 x 779 km, 86.4° (Epoch: 28 July)

Date Brightness Start Highest point End Pass type
(mag) Time Alt. Az. Time Alt. Az. Time Alt. Az.
28 Jul 6.5 01:52:25 10° NNE 01:57:14 38° E 01:57:18 38° E visible
28 Jul 6.8 03:33:39 10° NNW 03:37:46 23° W 03:37:46 23° W visible
29 Jul 7.4 01:19:36 10° NNE 01:23:26 21° ENE 01:23:39 21° E visible
29 Jul 6.1 02:59:30 10° NNW 03:04:06 42° WNW 03:04:06 42° WNW visible
30 Jul 8.0 00:48:01 10° NE 00:49:26 11° ENE 00:50:00 11° ENE visible
30 Jul 5.6 02:25:46 10° N 02:30:27 71° NNW 02:30:27 71° NNW visible
31 Jul 6.1 01:52:19 10° N 01:56:48 52° ENE 01:56:48 52° ENE visible
31 Jul 7.3 03:34:28 10° NW 03:37:16 16° WNW 03:37:16 16° WNW visible
01 Aug 7.0 01:19:12 10° NNE 01:23:10 29° ENE 01:23:10 29° ENE visible
01 Aug 6.7 02:59:55 10° NNW 03:03:38 28° WNW 03:03:38 28° WNW visible
02 Aug 7.7 00:46:39 10° NE 00:49:33 17° ENE 00:49:33 17° ENE visible
02 Aug 6.2 02:25:57 10° NNW 02:30:00 47° NW 02:30:00 47° NW visible
03 Aug 6.1 01:52:19 10° N 01:56:24 55° NNE 01:56:24 55° NNE visible
03 Aug 7.8 03:36:07 10° WNW 03:36:51 11° WNW 03:36:51 11° WNW visible
04 Aug 6.7 01:18:59 10° N 01:22:47 37° NE 01:22:47 37° NE visible
04 Aug 7.3 03:00:31 10° NNW 03:03:14 20° WNW 03:03:14 20° WNW visible
05 Aug 7.4 00:46:03 10° NNE 00:49:11 22° ENE 00:49:11 22° ENE visible
05 Aug 6.8 02:26:15 10° NNW 02:29:38 32° NW 02:29:38 32° NW visible
06 Aug 7.9 00:13:59 10° NE 00:15:35 13° ENE 00:15:35 13° ENE visible
06 Aug 6.4 01:52:26 10° N 01:56:02 44° NNW 01:56:02 44° NNW visible
